When you browse on this site, cookies collect data to enhance your experience and personalize the content and advertising you see.
Visit our Privacy Policy to learn more. By continuing to use the site, you agree to this use of cookies and data.
  • In Deutschland
  • Länderverzeichnis
  • Für 7 Tage
  • Wassertemperatur
  • Satellitenkarten
  • Wetterkarte
  • Widgets
  • user-avatar
    Anmelden

    Stündliche Wetter Butiá

    Heute, 13 Dezember, Donnerstag

    Zeit Temperatur Niederschläge Wind Luftdruck Luftfeuchtigkeit
    00:00 +23°C° 0 mm 2 m/S 755 mmHg 89%
    01:00 +23°C° 0 mm 2 m/S 755 mmHg 90%
    02:00 +23°C° 0 mm 2 m/S 755 mmHg 91%
    03:00 +22°C° 0 mm 1 m/S 755 mmHg 92%
    04:00 +22°C° 0 mm 1 m/S 755 mmHg 92%
    05:00 +21°C° 0 mm 2 m/S 755 mmHg 92%
    06:00 +21°C° 0 mm 2 m/S 755 mmHg 92%
    07:00 +24°C° 0 mm 2 m/S 755 mmHg 86%
    08:00 +26°C° 0 mm 2 m/S 755 mmHg 80%
    09:00 +28°C° 0 mm 2 m/S 755 mmHg 74%
    10:00 +29°C° 0 mm 3 m/S 755 mmHg 69%
    11:00 +31°C° 0 mm 3 m/S 754 mmHg 63%
    12:00 +34°C° 0 mm 3 m/S 754 mmHg 57%
    13:00 +33°C° 1.3 mm 3 m/S 754 mmHg 63%
    14:00 +30°C° 1.3 mm 4 m/S 754 mmHg 69%
    15:00 +29°C° 1.3 mm 4 m/S 754 mmHg 75%
    16:00 +28°C° 0.5 mm 4 m/S 753 mmHg 77%
    17:00 +26°C° 0.5 mm 4 m/S 753 mmHg 80%
    18:00 +25°C° 0.5 mm 4 m/S 753 mmHg 83%
    19:00 +23°C° 0 mm 4 m/S 753 mmHg 85%
    20:00 +24°C° 0 mm 3 m/S 753 mmHg 87%
    21:00 +22°C° 0 mm 3 m/S 752 mmHg 89%
    22:00 +22°C° 0 mm 3 m/S 752 mmHg 90%
    23:00 +22°C° 0 mm 3 m/S 752 mmHg 91%

    Morgen, 14 Dezember, Freitag

    Zeit Temperatur Niederschläge Wind Luftdruck Luftfeuchtigkeit
    00:00 +22°C° 0 mm 3 m/S 752 mmHg 92%
    01:00 +23°C° 0 mm 2 m/S 752 mmHg 93%
    02:00 +23°C° 0 mm 2 m/S 752 mmHg 94%
    03:00 +21°C° 0 mm 2 m/S 751 mmHg 95%
    04:00 +23°C° 0 mm 2 m/S 751 mmHg 94%
    05:00 +23°C° 0 mm 2 m/S 751 mmHg 93%
    06:00 +23°C° 0 mm 2 m/S 751 mmHg 92%
    07:00 +25°C° 0 mm 2 m/S 751 mmHg 84%
    08:00 +27°C° 0 mm 2 m/S 751 mmHg 76%
    09:00 +29°C° 0 mm 3 m/S 752 mmHg 69%
    10:00 +33°C° 0 mm 3 m/S 752 mmHg 60%
    11:00 +35°C° 0 mm 3 m/S 752 mmHg 52%
    12:00 +37°C° 0 mm 4 m/S 752 mmHg 44%
    13:00 +38°C° 0 mm 3 m/S 751 mmHg 43%
    14:00 +38°C° 0 mm 3 m/S 751 mmHg 42%
    15:00 +39°C° 0 mm 2 m/S 751 mmHg 41%
    16:00 +37°C° 0 mm 2 m/S 751 mmHg 48%
    17:00 +36°C° 0 mm 2 m/S 750 mmHg 54%
    18:00 +34°C° 0 mm 1 m/S 750 mmHg 60%
    19:00 +32°C° 0.1 mm 1 m/S 750 mmHg 66%
    20:00 +30°C° 0.1 mm 1 m/S 751 mmHg 71%
    21:00 +28°C° 0.1 mm 1 m/S 751 mmHg 77%
    22:00 +28°C° 0 mm 1 m/S 751 mmHg 77%
    23:00 +27°C° 0 mm 1 m/S 751 mmHg 78%

    übermorgen, 15 Dezember, Samstag

    Zeit Temperatur Niederschläge Wind Luftdruck Luftfeuchtigkeit
    00:00 +27°C° 0 mm 1 m/S 751 mmHg 79%
    01:00 +27°C° 1.2 mm 1 m/S 752 mmHg 82%
    02:00 +26°C° 1.2 mm 2 m/S 752 mmHg 85%
    03:00 +26°C° 1.2 mm 2 m/S 752 mmHg 87%
    04:00 +25°C° 1.4 mm 2 m/S 752 mmHg 90%
    05:00 +25°C° 1.4 mm 2 m/S 753 mmHg 93%
    06:00 +25°C° 1.4 mm 1 m/S 753 mmHg 96%
    07:00 +26°C° 0.4 mm 1 m/S 754 mmHg 92%
    08:00 +27°C° 0.4 mm 2 m/S 754 mmHg 88%
    09:00 +28°C° 0.4 mm 2 m/S 754 mmHg 84%
    10:00 +30°C° 0 mm 3 m/S 754 mmHg 75%
    11:00 +33°C° 0 mm 4 m/S 754 mmHg 66%
    12:00 +35°C° 0 mm 5 m/S 754 mmHg 58%
    13:00 +35°C° 0 mm 4 m/S 753 mmHg 57%
    14:00 +35°C° 0 mm 4 m/S 753 mmHg 56%
    15:00 +35°C° 0 mm 3 m/S 753 mmHg 55%
    16:00 +34°C° 0.3 mm 3 m/S 753 mmHg 60%
    17:00 +32°C° 0.3 mm 2 m/S 753 mmHg 66%
    18:00 +31°C° 0.3 mm 2 m/S 753 mmHg 72%
    19:00 +29°C° 0.3 mm 3 m/S 754 mmHg 78%
    20:00 +27°C° 0.3 mm 3 m/S 755 mmHg 83%
    21:00 +25°C° 0.3 mm 4 m/S 755 mmHg 89%
    22:00 +23°C° 0.2 mm 4 m/S 755 mmHg 88%
    23:00 +24°C° 0.2 mm 3 m/S 755 mmHg 88%

    16 Dezember, Sonntag

    Zeit Temperatur Niederschläge Wind Luftdruck Luftfeuchtigkeit
    00:00 +22°C° 0.2 mm 3 m/S 756 mmHg 88%
    01:00 +23°C° 0.9 mm 2 m/S 755 mmHg 90%
    02:00 +23°C° 0.9 mm 2 m/S 755 mmHg 93%
    03:00 +21°C° 0.9 mm 2 m/S 755 mmHg 96%
    04:00 +23°C° 0.2 mm 2 m/S 755 mmHg 96%
    05:00 +23°C° 0.2 mm 2 m/S 755 mmHg 96%
    06:00 +23°C° 0.2 mm 2 m/S 755 mmHg 96%
    07:00 +24°C° 0.2 mm 2 m/S 755 mmHg 92%
    08:00 +26°C° 0.2 mm 2 m/S 755 mmHg 88%
    09:00 +27°C° 0.2 mm 2 m/S 755 mmHg 84%
    10:00 +29°C° 0 mm 2 m/S 755 mmHg 77%
    11:00 +31°C° 0 mm 2 m/S 754 mmHg 69%
    12:00 +33°C° 0 mm 1 m/S 754 mmHg 62%
    13:00 +34°C° 0.1 mm 1 m/S 753 mmHg 59%
    14:00 +35°C° 0.1 mm 1 m/S 753 mmHg 56%
    15:00 +36°C° 0.1 mm 1 m/S 752 mmHg 53%
    16:00 +36°C° 0.2 mm 2 m/S 752 mmHg 59%
    17:00 +34°C° 0.2 mm 2 m/S 752 mmHg 65%
    18:00 +33°C° 0.2 mm 3 m/S 751 mmHg 70%
    19:00 +30°C° 1.1 mm 3 m/S 752 mmHg 78%
    20:00 +28°C° 1.1 mm 3 m/S 752 mmHg 86%
    21:00 +26°C° 1.1 mm 2 m/S 752 mmHg 94%
    22:00 +25°C° 1.6 mm 2 m/S 752 mmHg 95%
    23:00 +25°C° 1.6 mm 2 m/S 753 mmHg 96%

    17 Dezember, Montag

    Zeit Temperatur Niederschläge Wind Luftdruck Luftfeuchtigkeit
    00:00 +25°C° 1.6 mm 2 m/S 753 mmHg 97%
    01:00 +25°C° 0.4 mm 2 m/S 752 mmHg 97%
    02:00 +25°C° 0.4 mm 1 m/S 752 mmHg 97%
    03:00 +25°C° 0.4 mm 1 m/S 751 mmHg 97%
    04:00 +25°C° 0 mm 1 m/S 751 mmHg 97%
    05:00 +25°C° 0 mm 1 m/S 751 mmHg 97%
    06:00 +25°C° 0 mm 1 m/S 751 mmHg 96%
    07:00 +26°C° 0.1 mm 1 m/S 751 mmHg 92%
    08:00 +27°C° 0.1 mm 2 m/S 751 mmHg 87%
    09:00 +29°C° 0.1 mm 2 m/S 752 mmHg 82%
    10:00 +30°C° 1.8 mm 2 m/S 752 mmHg 79%
    11:00 +30°C° 1.8 mm 3 m/S 751 mmHg 76%
    12:00 +31°C° 1.8 mm 3 m/S 751 mmHg 74%
    13:00 +30°C° 2.7 mm 3 m/S 752 mmHg 78%
    14:00 +29°C° 2.7 mm 3 m/S 752 mmHg 83%
    15:00 +28°C° 2.7 mm 2 m/S 752 mmHg 87%
    16:00 +27°C° 0.4 mm 2 m/S 752 mmHg 89%
    17:00 +27°C° 0.4 mm 1 m/S 752 mmHg 90%
    18:00 +27°C° 0.4 mm 1 m/S 752 mmHg 91%
    19:00 +26°C° 0.1 mm 1 m/S 752 mmHg 92%
    20:00 +25°C° 0.1 mm 1 m/S 752 mmHg 94%
    21:00 +25°C° 0.1 mm 1 m/S 753 mmHg 95%
    22:00 +24°C° 0.3 mm 2 m/S 753 mmHg 95%
    23:00 +24°C° 0.3 mm 2 m/S 753 mmHg 96%

    18 Dezember, Dienstag

    Zeit Temperatur Niederschläge Wind Luftdruck Luftfeuchtigkeit
    00:00 +24°C° 0.3 mm 2 m/S 754 mmHg 96%
    01:00 +24°C° 0.1 mm 2 m/S 754 mmHg 96%
    02:00 +24°C° 0.1 mm 2 m/S 754 mmHg 96%
    03:00 +22°C° 0.1 mm 3 m/S 754 mmHg 96%
    04:00 +22°C° 0.1 mm 3 m/S 754 mmHg 95%
    05:00 +22°C° 0.1 mm 3 m/S 755 mmHg 95%
    06:00 +22°C° 0.1 mm 3 m/S 755 mmHg 95%
    07:00 +22°C° 0.1 mm 3 m/S 756 mmHg 92%
    08:00 +22°C° 0.1 mm 4 m/S 756 mmHg 90%
    09:00 +22°C° 0.1 mm 4 m/S 757 mmHg 88%
    10:00 +22°C° 0.1 mm 4 m/S 757 mmHg 87%
    11:00 +22°C° 0.1 mm 4 m/S 757 mmHg 86%
    12:00 +22°C° 0.1 mm 4 m/S 757 mmHg 85%
    13:00 +23°C° 0 mm 4 m/S 757 mmHg 83%
    14:00 +23°C° 0 mm 4 m/S 756 mmHg 82%
    15:00 +23°C° 0 mm 4 m/S 756 mmHg 80%
    16:00 +23°C° 0 mm 4 m/S 756 mmHg 81%
    17:00 +22°C° 0 mm 4 m/S 756 mmHg 82%
    18:00 +22°C° 0 mm 4 m/S 756 mmHg 83%
    19:00 +21°C° 0 mm 4 m/S 756 mmHg 84%
    20:00 +21°C° 0 mm 4 m/S 757 mmHg 84%
    21:00 +21°C° 0 mm 3 m/S 757 mmHg 85%
    22:00 +20°C° 0 mm 3 m/S 756 mmHg 86%
    23:00 +20°C° 0 mm 3 m/S 756 mmHg 87%
    Mehr zeigen